カタログに戻る

CZ-6A DEB

運用中SSO
NORAD 56655·DEBRIS·🇨🇳 China

打ち上げ Nov 11, 2022 から Taiyuan Satellite Launch Center

Loading…

次のパス (今後24時間)

TLE

経年Source: Space-Track

元期: Sep 9, 2026, 08:44 UTC

1 56655U 22151AGF 26252.36394870  .00001092  00000-0  34453-3 0  9999
2 56655  98.6183 289.7345 0085751 107.2350 253.8245 14.40205104177179

AllMySatでCZ-6A DEBをリアルタイム追跡

Download on the App Store